TimeCDT,TemperatureF,Dew PointF,Humidity,Sea Level PressureIn,VisibilityMPH,Wind Direction,Wind SpeedMPH,Gust SpeedMPH,PrecipitationIn,Events,Conditions,WindDirDegrees,DateUTC
12:01 AM,57.2,50.0,77,30.11,7.0,South,6.9,-,N/A,,Clear,170,2013-05-13 05:01:00
12:22 AM,59.0,50.0,72,30.11,8.0,SE,4.6,-,N/A,,Clear,140,2013-05-13 05:22:00
12:32 AM,57.2,50.0,77,30.11,7.0,SSE,4.6,-,N/A,,Clear,150,2013-05-13 05:32:00
12:37 AM,57.2,50.0,77,30.11,7.0,SSE,4.6,-,N/A,,Clear,150,2013-05-13 05:37:00
12:57 AM,55.4,50.0,82,30.11,10.0,SSE,3.5,-,N/A,,Clear,160,2013-05-13 05:57:00
12:58 AM,56.5,50.5,80,30.09,10.0,SSE,3.5,-,N/A,,Clear,160,2013-05-13 05:58:00
1:28 AM,57.2,50.0,77,30.11,9.0,SSE,3.5,-,N/A,,Clear,150,2013-05-13 06:28:00
1:43 AM,55.4,50.0,82,30.11,9.0,South,3.5,-,N/A,,Clear,180,2013-05-13 06:43:00
1:58 AM,56.5,49.3,77,30.09,10.0,SSW,4.6,-,N/A,,Clear,200,2013-05-13 06:58:00
2:58 AM,59.0,48.7,69,30.08,10.0,SW,5.8,-,N/A,,Clear,220,2013-05-13 07:58:00
3:58 AM,58.5,48.0,68,30.09,10.0,SSW,1.2,-,N/A,,Clear,210,2013-05-13 08:58:00
4:58 AM,54.7,48.0,78,30.09,10.0,SSE,3.5,-,N/A,,Clear,150,2013-05-13 09:58:00
5:58 AM,52.2,48.0,86,30.10,10.0,SSE,3.5,-,N/A,,Clear,160,2013-05-13 10:58:00
6:58 AM,52.9,47.8,83,30.10,10.0,South,4.6,-,N/A,,Clear,180,2013-05-13 11:58:00
7:58 AM,57.9,51.6,80,30.12,10.0,South,5.8,-,N/A,,Clear,180,2013-05-13 12:58:00
8:58 AM,67.5,49.1,52,30.14,10.0,SSW,11.5,-,N/A,,Clear,210,2013-05-13 13:58:00
9:58 AM,74.5,46.0,36,30.13,10.0,SW,21.9,25.3,N/A,,Clear,230,2013-05-13 14:58:00
10:58 AM,79.7,45.7,30,30.12,10.0,SW,16.1,23.0,N/A,,Clear,230,2013-05-13 15:58:00
11:58 AM,83.7,45.1,26,30.10,10.0,SW,13.8,21.9,N/A,,Clear,230,2013-05-13 16:58:00
12:58 PM,86.9,46.6,25,30.10,10.0,SW,15.0,-,N/A,,Clear,220,2013-05-13 17:58:00
1:58 PM,89.6,46.2,22,30.07,10.0,SW,13.8,20.7,N/A,,Clear,220,2013-05-13 18:58:00
3:58 PM,91.9,43.7,19,30.02,10.0,South,15.0,24.2,N/A,,Clear,190,2013-05-13 20:58:00
4:58 PM,91.8,41.7,17,30.02,10.0,South,20.7,25.3,N/A,,Clear,190,2013-05-13 21:58:00
5:58 PM,90.9,39.2,16,30.01,10.0,South,17.3,-,N/A,,Clear,190,2013-05-13 22:58:00
6:58 PM,89.2,40.8,18,30.00,10.0,South,15.0,-,N/A,,Clear,190,2013-05-13 23:58:00
7:58 PM,82.0,44.8,27,30.00,10.0,South,13.8,-,N/A,,Clear,180,2013-05-14 00:58:00
8:58 PM,72.0,46.0,40,30.02,10.0,South,12.7,-,N/A,,Clear,180,2013-05-14 01:58:00
9:58 PM,66.7,46.9,49,30.03,10.0,South,11.5,-,N/A,,Clear,180,2013-05-14 02:58:00
10:58 PM,67.6,43.7,42,30.04,10.0,South,15.0,-,N/A,,Clear,190,2013-05-14 03:58:00
11:58 PM,64.4,44.2,48,30.04,10.0,South,12.7,-,N/A,,Clear,180,2013-05-14 04:58:00